Location: Newark
(46.7000°N, 60.6000°W)
Time: 00:31:31
(UTC+00:00)

Vanguard 1 - Pass Details

Date: 31 October 2020
Orbit: 650 x 3833 km, 34.2° (Epoch: 23 November)

Event Time Altitude Azimuth Distance (km) Brightness Sun altitude
Rises 00:02:06 0° 278° (W) 7,280 15.6 -33.4°
Maximum altitude 00:15:47 10° 239° (WSW) 5,071 14.1 -35.6°
Drops below altitude 10° 00:15:48 10° 239° (WSW) 5,069 14.1 -35.6°
Sets 00:25:40 0° 196° (SSW) 4,925 13.6 -37.2°
